This demonstration page uses our WeatherBlox Daily Observations layout. Learn more.

36.19886, -115.1175

Hourly Observations for June 30, 2018

Temp ( °F °C ) Dew Point ( °F °C ) Humidity (%) Winds ( mph kmh ) Pressure ( in mb ) Visibility ( mi km ) Precip ( " mm )
12:53 am 00:53 Clear 86 30 35 1.7 16 16 Calm 29.74 1007 10 16.09344 0 0
1:53 am 01:53 Clear 82 27.8 36 2.2 19 19 Calm 29.74 1007 10 16.09344 0 0
2:53 am 02:53 Clear 80 26.7 36 2.2 20 20 N 3 6 29.74 1007 10 16.09344 0 0
3:53 am 03:53 Clear 78 25.6 34 1.1 20 20 NW 7 11 29.77 1008 10 16.09344 0 0
4:53 am 04:53 Clear 78 25.6 32 0 19 19 N 7 11 29.8 1009 10 16.09344 0 0
5:53 am 05:53 Sunny 77 25 33 0.6 20 20 N 5 7 29.83 1010 10 16.09344 0 0
6:53 am 06:53 Sunny 81 27.2 34 1.1 18 18 NNE 5 7 29.83 1010 10 16.09344 0 0
7:31 am 07:31 Sunny 83 28.3 33 0.6 17 17 NNE 6 9 29.77 1008 10 16.09344 0 0
7:53 am 07:53 Sunny 83 28.3 34 1.1 17 17 E 6 9 29.85 1011 10 16.09344 0 0
8:53 am 08:53 Sunny 87 30.6 33 0.6 14 14 ESE 7 11 29.85 1011 10 16.09344 0 0
9:53 am 09:53 Sunny 88 31.1 32 0 13 13 SSE 3 6 29.85 1011 10 16.09344 0 0
10:53 am 10:53 Sunny 92 33.3 33 0.6 12 12 N 3 6 29.85 1011 10 16.09344 0 0
11:53 am 11:53 Sunny 94 34.4 33 0.6 12 12 N 6 9 29.85 1011 10 16.09344 0 0
12:53 pm 12:53 Sunny 96 35.6 31 -0.6 10 10 ESE 5 7 29.85 1011 10 16.09344 0 0
1:53 pm 13:53 Sunny 98 36.7 32 0 10 10 undefined N/A 29.83 1010 10 16.09344 0 0
2:53 pm 14:53 Sunny 99 37.2 31 -0.6 9 9 N 3 6 29.8 1009 10 16.09344 0 0
3:53 pm 15:53 Sunny 101 38.3 30 -1.1 8 8 SSW 6 9 29.77 1008 10 16.09344 0 0
4:53 pm 16:53 Sunny 101 38.3 30 -1.1 8 8 SE 9 15 29.77 1008 10 16.09344 0 0
5:53 pm 17:53 Sunny 101 38.3 31 -0.6 8 8 S 6 9 29.74 1007 10 16.09344 0 0
6:53 pm 18:53 Sunny 100 37.8 32 0 9 9 S 9 15 29.74 1007 10 16.09344 0 0
7:53 pm 19:53 Sunny 99 37.2 30 -1.1 9 9 SSE 10 17 29.74 1007 10 16.09344 0 0
8:53 pm 20:53 Clear 96 35.6 30 -1.1 10 10 SSE 12 19 29.77 1008 10 16.09344 0 0
9:53 pm 21:53 Clear 95 35 32 0 11 11 S 12 19 29.8 1009 10 16.09344 0 0
10:53 pm 22:53 Clear 93 33.9 31 -0.6 11 11 SSW 6 9 29.8 1009 10 16.09344 0 0
11:53 pm 23:53 Clear 90 32.2 31 -0.6 12 12 SE 9 15 29.8 1009 10 16.09344 0 0

Powered by AerisWeather